This is the latest recevied weather packets stored in our database for station/object W4CAT-13. If no packets are shown the sender has not sent any weather packets the latest 10 day(s).
| Time | Temp. | Humidity | Pressure | Rain* | Wind** | Luminosity | Snow |
|---|---|---|---|---|---|---|---|
| 1777681651 | 13.33° C | 46% | 978.3 hPa | 0 mm | - | - | - |
| 1777680721 | 13.33° C | 44% | 977.6 hPa | 0 mm | - | - | - |
| 1777679821 | 14.44° C | 43% | 977.3 hPa | 0 mm | - | - | - |
| 1777678891 | 14.44° C | 39% | 977.3 hPa | 0 mm | - | - | - |
| 1777677961 | 14.44° C | 37% | 977.6 hPa | 0 mm | - | - | - |
| 1777677061 | 15° C | 36% | 977.3 hPa | 0 mm | - | - | - |
| 1777676161 | 15.56° C | 34% | 977 hPa | 0 mm | - | - | - |
| 1777675231 | 15.56° C | 36% | 977 hPa | 0 mm | - | - | - |
| 1777674302 | 16.11° C | 33% | 977 hPa | 0 mm | - | - | - |
| 1777673371 | 16.11° C | 32% | 977 hPa | 0 mm | - | - | - |
| 1777672441 | 16.67° C | 33% | 977 hPa | 0 mm | - | - | - |
| 1777671541 | 16.67° C | 35% | 977.3 hPa | 0 mm | - | - | - |
| 1777670641 | 16.67° C | 34% | 977.3 hPa | 0 mm | - | - | - |
| 1777669711 | 16.67° C | 36% | 977.3 hPa | 0 mm | - | - | - |
| 1777668810 | 16.67° C | 36% | 977.6 hPa | 0 mm | - | - | - |
| 1777667911 | 17.22° C | 36% | 977.6 hPa | 0 mm | - | - | - |
| 1777667011 | 17.22° C | 36% | 978 hPa | 0 mm | - | - | - |
| 1777666111 | 17.78° C | 40% | 978 hPa | 0 mm | - | - | - |
| 1777665210 | 17.22° C | 43% | 978.2 hPa | 0 mm | - | - | - |
| 1777664281 | 17.22° C | 47% | 978.7 hPa | 0 mm | - | - | - |
| 1777663351 | 17.78° C | 44% | 978.3 hPa | 0 mm | - | - | - |
| 1777662451 | 17.78° C | 46% | 978.4 hPa | 0 mm | - | - | - |
| 1777661520 | 17.78° C | 46% | 978.3 hPa | 0 mm | - | - | - |
| 1777660620 | 17.22° C | 46% | 978.3 hPa | 0 mm | - | - | - |
| 1777659721 | 17.22° C | 45% | 978.3 hPa | 0 mm | - | - | - |
* Rain latest hour (hover to see other rain measurements)
** Current wind speed in m/s (hover to see current wind gust speed)